Tracking 25534 objects as of 29-Jan-2022
HD Live streaming from Space Station
objects crossing your sky now

THOR ABLESTAR DEB

Track THOR ABLESTAR DEB now!
10-day predictions


NORAD ID: 479
Int'l Code: 1961-015FR
Perigee: 558.3 km
Apogee: 578.0 km
Inclination: 66.7 °
Period: 95.9 minutes
Semi major axis: 6939 km
RCS: 0.0495 m2 (small)
Launch date: June 29, 1961
Source: United States (US)
Launch site: AIR FORCE EASTERN TEST RANGE (AFETR)

Note: This is SATELLITE DEBRIS
aabbcc
Your satellite tracking list
Your tracking list is empty




NASA's NSSDC Master Catalog

Two Line Element Set (TLE):
1   479U 61015FR  22029.21666667  .00020660  00000-0  15776-2 0  9990
2   479  66.6755  81.6055 0014194 333.6324  26.4087 15.01920269132441
Source of the keplerian elements: AFSPC